| time (UTC) | temp C | wind direction | speed KPH | gust KPH | rain 1hr cm | rain 24hr cm | rain mn cm | humidity % | barometer mb |
| 20260509034622 | 13 | 261 | 0.0 | 0.0 | 0.00 | 0.00 | 0.00 | 73 | 1021.7 |
| 20260509034119 | 14 | 202 | 4.8 | 8.0 | 0.00 | 0.00 | 0.00 | 72 | 1021.7 |
| 20260509033616 | 14 | 241 | 1.6 | 4.8 | 0.00 | 0.00 | 0.00 | 72 | 1021.6 |
| 20260509033113 | 14 | 194 | 6.4 | 8.0 | 0.00 | 0.00 | 0.00 | 71 | 1021.6 |
| 20260509032610 | 14 | 177 | 3.2 | 3.2 | 0.00 | 0.00 | 0.00 | 71 | 1021.4 |
| 20260509032107 | 14 | 239 | 0.0 | 0.0 | 0.00 | 0.00 | 0.00 | 70 | 1021.6 |
| 20260509031605 | 15 | 211 | 8.0 | 9.7 | 0.00 | 0.00 | 0.00 | 69 | 1021.4 |
| 20260509031102 | 15 | 267 | 4.8 | 8.0 | 0.00 | 0.00 | 0.00 | 69 | 1021.3 |
| 20260509030600 | 15 | 178 | 4.8 | 4.8 | 0.00 | 0.00 | 0.00 | 68 | 1021.2 |
| 20260509030056 | 15 | 228 | 3.2 | 4.8 | 0.00 | 0.00 | 0.00 | 68 | 1021.2 |
| 20260509025553 | 15 | 247 | 6.4 | 8.0 | 0.00 | 0.00 | 0.00 | 67 | 1021.2 |
| 20260509025048 | 15 | 269 | 4.8 | 8.0 | 0.00 | 0.00 | 0.00 | 66 | 1021.1 |
| 20260509024544 | 15 | 185 | 11.3 | 12.9 | 0.00 | 0.00 | 0.00 | 65 | 1021.2 |
| 20260509024040 | 15 | 211 | 9.7 | 14.5 | 0.00 | 0.00 | 0.00 | 64 | 1021.1 |
| 20260509023538 | 15 | 214 | 4.8 | 4.8 | 0.00 | 0.00 | 0.00 | 63 | 1021.2 |
| 20260509023035 | 15 | 233 | 3.2 | 3.2 | 0.00 | 0.00 | 0.00 | 63 | 1021.2 |
| 20260509022532 | 15 | 212 | 6.4 | 12.9 | 0.00 | 0.00 | 0.00 | 63 | 1021.2 |
| 20260509022029 | 16 | 191 | 11.3 | 16.1 | 0.00 | 0.00 | 0.00 | 63 | 1021.2 |
| 20260509021526 | 16 | 250 | 4.8 | 9.7 | 0.00 | 0.00 | 0.00 | 63 | 1021.1 |
| 20260509021023 | 16 | 208 | 8.0 | 9.7 | 0.00 | 0.00 | 0.00 | 63 | 1021.4 |
| 20260509020522 | 16 | 186 | 9.7 | 11.3 | 0.00 | 0.00 | 0.00 | 63 | 1020.9 |
| 20260509020018 | 16 | 178 | 8.0 | 9.7 | 0.00 | 0.00 | 0.00 | 62 | 1021.1 |
| 20260509015517 | 16 | 191 | 3.2 | 3.2 | 0.00 | 0.00 | 0.00 | 62 | 1021.1 |
| 20260509015014 | 16 | 204 | 14.5 | 16.1 | 0.00 | 0.00 | 0.00 | 61 | 1020.9 |
| 20260509014511 | 16 | 194 | 9.7 | 11.3 | 0.00 | 0.00 | 0.00 | 60 | 1021.1 |
| 20260509014007 | 16 | 259 | 1.6 | 1.6 | 0.00 | 0.00 | 0.00 | 60 | 1021.1 |
| 20260509013504 | 16 | 200 | 14.5 | 16.1 | 0.00 | 0.00 | 0.00 | 60 | 1021.3 |
| 20260509012959 | 16 | 219 | 4.8 | 4.8 | 0.00 | 0.00 | 0.00 | 60 | 1021.0 |
| 20260509012456 | 16 | 180 | 9.7 | 12.9 | 0.00 | 0.00 | 0.00 | 60 | 1021.0 |
| 20260509011953 | 16 | 189 | 11.3 | 16.1 | 0.00 | 0.00 | 0.00 | 60 | 1021.0 |
| 20260509011451 | 17 | 160 | 16.1 | 20.9 | 0.00 | 0.00 | 0.00 | 58 | 1021.0 |
| 20260509010948 | 16 | 226 | 1.6 | 3.2 | 0.00 | 0.00 | 0.00 | 58 | 1021.3 |
| 20260509010446 | 16 | 275 | 9.7 | 12.9 | 0.00 | 0.00 | 0.00 | 58 | 1021.3 |
| 20260509005942 | 16 | 168 | 16.1 | 17.7 | 0.00 | 0.00 | 0.00 | 58 | 1021.2 |
| 20260509005441 | 16 | 205 | 4.8 | 4.8 | 0.00 | 0.00 | 0.00 | 56 | 1021.2 |
| 20260509004940 | 16 | 204 | 9.7 | 12.9 | 0.00 | 0.00 | 0.00 | 56 | 1021.4 |
| 20260509004437 | 16 | 178 | 12.9 | 14.5 | 0.00 | 0.00 | 0.00 | 58 | 1021.3 |
| 20260509003935 | 16 | 212 | 8.0 | 11.3 | 0.00 | 0.00 | 0.00 | 57 | 1021.3 |
| 20260509003433 | 16 | 195 | 14.5 | 16.1 | 0.00 | 0.00 | 0.00 | 57 | 1021.2 |
| 20260509002929 | 17 | 290 | 9.7 | 14.5 | 0.00 | 0.00 | 0.00 | 57 | 1021.2 |
| 20260509002427 | 16 | 206 | 9.7 | 11.3 | 0.00 | 0.00 | 0.00 | 57 | 1021.3 |
| 20260509001924 | 17 | 195 | 9.7 | 12.9 | 0.00 | 0.00 | 0.00 | 56 | 1021.3 |
| 20260509001421 | 17 | 218 | 16.1 | 17.7 | 0.00 | 0.00 | 0.00 | 57 | 1021.2 |
| 20260509000918 | 16 | 249 | 4.8 | 8.0 | 0.00 | 0.00 | 0.00 | 57 | 1021.4 |
| 20260509000418 | 16 | 288 | 9.7 | 14.5 | 0.00 | 0.00 | 0.00 | 57 | 1021.4 |
| 20260508235911 | 16 | 184 | 8.0 | 9.7 | 0.00 | 0.00 | 0.00 | 58 | 1021.2 |
| 20260508235409 | 17 | 246 | 8.0 | 12.9 | 0.00 | 0.00 | 0.00 | 55 | 1021.1 |
| 20260508234905 | 17 | 181 | 14.5 | 16.1 | 0.00 | 0.00 | 0.00 | 54 | 1021.1 |
| 20260508234402 | 17 | 282 | 1.6 | 3.2 | 0.00 | 0.00 | 0.00 | 55 | 1021.3 |
| 20260508233900 | 16 | 256 | 4.8 | 8.0 | 0.00 | 0.00 | 0.00 | 56 | 1021.2 |
| 20260508233400 | 16 | 204 | 14.5 | 17.7 | 0.00 | 0.00 | 0.00 | 55 | 1021.1 |
| 20260508232856 | 17 | 201 | 12.9 | 22.5 | 0.00 | 0.00 | 0.00 | 56 | 1021.1 |
| 20260508232352 | 16 | 171 | 11.3 | 14.5 | 0.00 | 0.00 | 0.00 | 56 | 1021.1 |
| 20260508231851 | 16 | 147 | 16.1 | 17.7 | 0.00 | 0.00 | 0.00 | 57 | 1021.1 |
| 20260508231346 | 16 | 222 | 11.3 | 12.9 | 0.00 | 0.00 | 0.00 | 57 | 1021.2 |
| 20260508230844 | 16 | 178 | 12.9 | 14.5 | 0.00 | 0.00 | 0.00 | 58 | 1021.1 |
| 20260508230340 | 16 | 272 | 1.6 | 4.8 | 0.00 | 0.00 | 0.00 | 57 | 1021.2 |
| 20260508225838 | 15 | 193 | 12.9 | 12.9 | 0.00 | 0.00 | 0.00 | 59 | 1021.3 |
| 20260508225334 | 16 | 188 | 12.9 | 14.5 | 0.00 | 0.00 | 0.00 | 59 | 1021.2 |
| 20260508224832 | 16 | 198 | 11.3 | 14.5 | 0.00 | 0.00 | 0.00 | 59 | 1021.2 |
| 20260508224330 | 16 | 202 | 11.3 | 14.5 | 0.00 | 0.00 | 0.00 | 60 | 1021.3 |
| 20260508223827 | 16 | 153 | 14.5 | 17.7 | 0.00 | 0.00 | 0.00 | 59 | 1021.3 |
| 20260508223324 | 15 | 183 | 14.5 | 16.1 | 0.00 | 0.00 | 0.00 | 60 | 1021.2 |
| 20260508222821 | 16 | 186 | 8.0 | 11.3 | 0.00 | 0.00 | 0.00 | 59 | 1021.3 |
| 20260508222318 | 15 | 184 | 9.7 | 11.3 | 0.00 | 0.00 | 0.00 | 61 | 1021.4 |
| 20260508221815 | 15 | 180 | 9.7 | 14.5 | 0.00 | 0.00 | 0.00 | 61 | 1021.2 |
| 20260508221310 | 15 | 165 | 11.3 | 14.5 | 0.00 | 0.00 | 0.00 | 62 | 1021.4 |
| 20260508220807 | 15 | 203 | 3.2 | 9.7 | 0.00 | 0.00 | 0.00 | 62 | 1021.3 |
| 20260508220304 | 15 | 218 | 4.8 | 8.0 | 0.00 | 0.00 | 0.00 | 60 | 1021.2 |
| 20260508215800 | 15 | 197 | 9.7 | 11.3 | 0.00 | 0.00 | 0.00 | 62 | 1021.4 |
| 20260508215257 | 15 | 181 | 14.5 | 16.1 | 0.00 | 0.00 | 0.00 | 62 | 1021.2 |
| 20260508214754 | 15 | 278 | 4.8 | 4.8 | 0.00 | 0.00 | 0.00 | 62 | 1021.0 |
| 20260508214251 | 14 | 231 | 4.8 | 8.0 | 0.00 | 0.00 | 0.00 | 64 | 1021.3 |
| 20260508213748 | 15 | 185 | 9.7 | 11.3 | 0.00 | 0.00 | 0.00 | 63 | 1021.2 |
| 20260508213244 | 15 | 148 | 6.4 | 8.0 | 0.00 | 0.00 | 0.00 | 63 | 1021.3 |
| 20260508212741 | 15 | 187 | 9.7 | 12.9 | 0.00 | 0.00 | 0.00 | 64 | 1021.4 |
| 20260508212237 | 14 | 194 | 20.9 | 24.1 | 0.00 | 0.00 | 0.00 | 65 | 1021.3 |
| 20260508211733 | 15 | 218 | 6.4 | 8.0 | 0.00 | 0.00 | 0.00 | 63 | 1021.3 |
| 20260508211229 | 14 | 248 | 8.0 | 11.3 | 0.00 | 0.00 | 0.00 | 64 | 1021.3 |
| 20260508210727 | 14 | 179 | 9.7 | 14.5 | 0.00 | 0.00 | 0.00 | 65 | 1021.3 |
| 20260508210223 | 13 | 125 | 8.0 | 11.3 | 0.00 | 0.00 | 0.00 | 66 | 1021.4 |
| 20260508205720 | 14 | 136 | 14.5 | 16.1 | 0.00 | 0.00 | 0.00 | 64 | 1021.2 |
| 20260508205217 | 15 | 206 | 9.7 | 14.5 | 0.00 | 0.00 | 0.00 | 65 | 1021.3 |
| 20260508204713 | 14 | 164 | 11.3 | 14.5 | 0.00 | 0.00 | 0.00 | 64 | 1021.3 |
| 20260508204210 | 14 | 212 | 8.0 | 9.7 | 0.00 | 0.00 | 0.00 | 66 | 1021.4 |
| 20260508203706 | 13 | 177 | 9.7 | 12.9 | 0.00 | 0.00 | 0.00 | 66 | 1021.3 |
| 20260508203202 | 13 | 200 | 8.0 | 9.7 | 0.00 | 0.00 | 0.00 | 67 | 1021.3 |
| 20260508202658 | 13 | 172 | 14.5 | 16.1 | 0.00 | 0.00 | 0.00 | 67 | 1021.2 |
| 20260508202155 | 13 | 173 | 8.0 | 8.0 | 0.00 | 0.00 | 0.00 | 67 | 1021.2 |
| 20260508201652 | 13 | 250 | 3.2 | 4.8 | 0.00 | 0.00 | 0.00 | 68 | 1021.1 |
| 20260508201149 | 13 | 243 | 4.8 | 8.0 | 0.00 | 0.00 | 0.00 | 67 | 1021.2 |
| 20260508200646 | 13 | 189 | 3.2 | 8.0 | 0.00 | 0.00 | 0.00 | 68 | 1021.3 |
| 20260508200142 | 13 | 217 | 8.0 | 9.7 | 0.00 | 0.00 | 0.00 | 68 | 1021.3 |
| 20260508195638 | 13 | 202 | 12.9 | 16.1 | 0.00 | 0.00 | 0.00 | 69 | 1021.2 |
| 20260508195135 | 13 | 229 | 14.5 | 17.7 | 0.00 | 0.00 | 0.00 | 68 | 1021.2 |
| 20260508194631 | 13 | 256 | 4.8 | 9.7 | 0.00 | 0.00 | 0.00 | 69 | 1021.0 |
| 20260508194128 | 13 | 197 | 6.4 | 8.0 | 0.00 | 0.00 | 0.00 | 66 | 1021.0 |
| 20260508193625 | 13 | 214 | 9.7 | 12.9 | 0.00 | 0.00 | 0.00 | 68 | 1020.9 |
| 20260508193122 | 13 | 193 | 8.0 | 14.5 | 0.00 | 0.00 | 0.00 | 66 | 1021.1 |
| 20260508192619 | 12 | 204 | 3.2 | 4.8 | 0.00 | 0.00 | 0.00 | 68 | 1021.2 |
| 20260508192116 | 13 | 192 | 9.7 | 11.3 | 0.00 | 0.00 | 0.00 | 67 | 1021.0 |
| 20260508191613 | 13 | 244 | 9.7 | 12.9 | 0.00 | 0.00 | 0.00 | 67 | 1020.9 |
| 20260508191109 | 13 | 229 | 8.0 | 12.9 | 0.00 | 0.00 | 0.00 | 67 | 1021.0 |
| 20260508190607 | 12 | 226 | 9.7 | 12.9 | 0.00 | 0.00 | 0.00 | 68 | 1020.9 |
| 20260508190103 | 12 | 205 | 8.0 | 12.9 | 0.00 | 0.00 | 0.00 | 69 | 1021.0 |
| 20260508185600 | 12 | 182 | 20.9 | 24.1 | 0.00 | 0.00 | 0.00 | 69 | 1020.9 |
| 20260508185057 | 12 | 216 | 11.3 | 16.1 | 0.00 | 0.00 | 0.00 | 70 | 1021.0 |
| 20260508184555 | 12 | 214 | 27.4 | 33.8 | 0.00 | 0.00 | 0.00 | 69 | 1020.9 |
| 20260508184051 | 12 | 193 | 6.4 | 9.7 | 0.00 | 0.00 | 0.00 | 70 | 1020.9 |
| 20260508183548 | 12 | 183 | 6.4 | 11.3 | 0.00 | 0.00 | 0.00 | 69 | 1020.8 |
| 20260508183043 | 12 | 184 | 17.7 | 22.5 | 0.00 | 0.00 | 0.00 | 70 | 1021.0 |
| 20260508182535 | 12 | 192 | 8.0 | 12.9 | 0.00 | 0.00 | 0.00 | 70 | 1020.9 |
| 20260508182032 | 12 | 177 | 17.7 | 22.5 | 0.00 | 0.00 | 0.00 | 71 | 1020.6 |
| 20260508181527 | 12 | 236 | 9.7 | 12.9 | 0.00 | 0.00 | 0.00 | 71 | 1020.6 |
| 20260508181025 | 12 | 252 | 9.7 | 11.3 | 0.00 | 0.00 | 0.00 | 71 | 1020.4 |
| 20260508180521 | 12 | 177 | 11.3 | 12.9 | 0.00 | 0.00 | 0.00 | 70 | 1020.5 |
| 20260508180018 | 12 | 173 | 9.7 | 14.5 | 0.00 | 0.00 | 0.00 | 71 | 1020.4 |
| 20260508175514 | 12 | 201 | 14.5 | 20.9 | 0.00 | 0.00 | 0.00 | 71 | 1020.5 |
| 20260508175012 | 12 | 210 | 6.4 | 9.7 | 0.00 | 0.00 | 0.00 | 73 | 1020.4 |
| 20260508174509 | 12 | 180 | 14.5 | 17.7 | 0.00 | 0.00 | 0.00 | 72 | 1020.2 |
| 20260508174006 | 12 | 222 | 11.3 | 16.1 | 0.00 | 0.00 | 0.00 | 73 | 1020.4 |
| 20260508173503 | 12 | 223 | 8.0 | 11.3 | 0.00 | 0.00 | 0.00 | 74 | 1020.2 |
| 20260508172959 | 12 | 181 | 4.8 | 8.0 | 0.00 | 0.00 | 0.00 | 74 | 1020.2 |
| 20260508172456 | 11 | 226 | 9.7 | 12.9 | 0.00 | 0.00 | 0.00 | 74 | 1019.9 |
| 20260508171952 | 12 | 209 | 8.0 | 11.3 | 0.00 | 0.00 | 0.00 | 74 | 1020.0 |
| 20260508171449 | 12 | 161 | 9.7 | 14.5 | 0.00 | 0.00 | 0.00 | 74 | 1019.7 |
| 20260508170945 | 12 | 267 | 4.8 | 8.0 | 0.00 | 0.00 | 0.00 | 74 | 1019.5 |
| 20260508170443 | 11 | 254 | 1.6 | 1.6 | 0.00 | 0.00 | 0.00 | 75 | 1019.8 |
| 20260508165939 | 11 | 171 | 22.5 | 25.7 | 0.00 | 0.00 | 0.00 | 75 | 1019.8 |
| 20260508165438 | 12 | 191 | 11.3 | 11.3 | 0.00 | 0.00 | 0.00 | 75 | 1019.4 |
| 20260508164933 | 12 | 157 | 8.0 | 12.9 | 0.00 | 0.00 | 0.00 | 74 | 1019.6 |
| 20260508164430 | 11 | 186 | 9.7 | 12.9 | 0.00 | 0.00 | 0.00 | 76 | 1019.4 |
| 20260508163927 | 11 | 179 | 16.1 | 17.7 | 0.00 | 0.00 | 0.00 | 76 | 1019.6 |
| 20260508163425 | 11 | 182 | 8.0 | 9.7 | 0.00 | 0.00 | 0.00 | 76 | 1019.5 |
| 20260508162920 | 11 | 188 | 9.7 | 12.9 | 0.00 | 0.00 | 0.00 | 77 | 1019.5 |
| 20260508162418 | 11 | 198 | 8.0 | 11.3 | 0.00 | 0.00 | 0.00 | 77 | 1019.4 |
| 20260508161914 | 11 | 205 | 12.9 | 16.1 | 0.00 | 0.00 | 0.00 | 76 | 1019.4 |
| 20260508161412 | 11 | 190 | 9.7 | 12.9 | 0.00 | 0.00 | 0.00 | 76 | 1019.3 |
| 20260508160909 | 11 | 142 | 8.0 | 11.3 | 0.00 | 0.00 | 0.00 | 77 | 1019.3 |
| 20260508160403 | 11 | 155 | 8.0 | 9.7 | 0.00 | 0.00 | 0.00 | 77 | 1019.4 |
| 20260508155858 | 11 | 185 | 17.7 | 22.5 | 0.00 | 0.00 | 0.00 | 77 | 1019.4 |
| 20260508155355 | 11 | 187 | 11.3 | 12.9 | 0.00 | 0.00 | 0.00 | 76 | 1019.2 |
| 20260508154852 | 11 | 199 | 17.7 | 17.7 | 0.00 | 0.00 | 0.00 | 77 | 1019.4 |
| 20260508154350 | 11 | 197 | 4.8 | 8.0 | 0.00 | 0.00 | 0.00 | 78 | 1019.3 |
| 20260508153846 | 11 | 188 | 8.0 | 11.3 | 0.00 | 0.00 | 0.00 | 79 | 1019.2 |
| 20260508153343 | 10 | 240 | 3.2 | 3.2 | 0.00 | 0.00 | 0.00 | 80 | 1019.5 |
| 20260508152839 | 10 | 190 | 19.3 | 24.1 | 0.00 | 0.00 | 0.00 | 80 | 1019.6 |
| 20260508152336 | 10 | 188 | 9.7 | 14.5 | 0.00 | 0.00 | 0.00 | 80 | 1019.4 |
| 20260508151832 | 11 | 175 | 14.5 | 17.7 | 0.00 | 0.00 | 0.00 | 79 | 1019.5 |
| 20260508151329 | 11 | 185 | 6.4 | 11.3 | 0.00 | 0.00 | 0.00 | 80 | 1019.5 |
| 20260508150826 | 11 | 195 | 6.4 | 11.3 | 0.00 | 0.00 | 0.00 | 80 | 1019.4 |
| 20260508150322 | 10 | 153 | 17.7 | 24.1 | 0.00 | 0.00 | 0.00 | 80 | 1019.2 |
| 20260508145818 | 10 | 202 | 11.3 | 12.9 | 0.00 | 0.00 | 0.00 | 81 | 1019.2 |
| 20260508145314 | 10 | 263 | 11.3 | 12.9 | 0.00 | 0.00 | 0.00 | 82 | 1019.2 |
| 20260508144812 | 10 | 209 | 9.7 | 16.1 | 0.00 | 0.00 | 0.00 | 83 | 1019.2 |
| 20260508144309 | 10 | 191 | 17.7 | 24.1 | 0.00 | 0.00 | 0.00 | 83 | 1018.9 |
| 20260508143801 | 10 | 251 | 12.9 | 20.9 | 0.00 | 0.00 | 0.00 | 83 | 1019.0 |
| 20260508143258 | 10 | 187 | 4.8 | 11.3 | 0.00 | 0.00 | 0.00 | 84 | 1018.8 |
| 20260508142755 | 10 | 191 | 4.8 | 8.0 | 0.00 | 0.00 | 0.00 | 84 | 1018.7 |
| 20260508142252 | 10 | 215 | 8.0 | 11.3 | 0.00 | 0.00 | 0.00 | 86 | 1018.6 |
| 20260508141748 | 10 | 178 | 8.0 | 11.3 | 0.00 | 0.00 | 0.00 | 86 | 1018.7 |
| 20260508141246 | 10 | 185 | 9.7 | 11.3 | 0.00 | 0.00 | 0.00 | 86 | 1018.7 |
| 20260508140743 | 10 | 196 | 11.3 | 14.5 | 0.00 | 0.00 | 0.00 | 86 | 1018.6 |
| 20260508140239 | 10 | 199 | 11.3 | 12.9 | 0.00 | 0.00 | 0.00 | 86 | 1018.2 |
| 20260508135735 | 10 | 186 | 6.4 | 8.0 | 0.00 | 0.00 | 0.00 | 86 | 1018.4 |
| 20260508135232 | 10 | 195 | 11.3 | 12.9 | 0.00 | 0.00 | 0.00 | 86 | 1018.1 |
| 20260508134727 | 10 | 190 | 11.3 | 11.3 | 0.00 | 0.00 | 0.00 | 85 | 1018.2 |
| 20260508134225 | 10 | 198 | 9.7 | 11.3 | 0.00 | 0.00 | 0.00 | 85 | 1018.0 |
| 20260508133721 | 10 | 201 | 4.8 | 4.8 | 0.00 | 0.00 | 0.00 | 85 | 1017.9 |
| 20260508133219 | 10 | 161 | 9.7 | 12.9 | 0.00 | 0.00 | 0.00 | 85 | 1017.5 |
| 20260508132717 | 10 | 180 | 8.0 | 9.7 | 0.00 | 0.00 | 0.00 | 85 | 1017.5 |
| 20260508132214 | 10 | 172 | 8.0 | 11.3 | 0.00 | 0.00 | 0.00 | 85 | 1017.7 |
| 20260508131709 | 10 | 199 | 4.8 | 4.8 | 0.00 | 0.00 | 0.00 | 85 | 1017.8 |
| 20260508131206 | 10 | 200 | 4.8 | 4.8 | 0.00 | 0.00 | 0.00 | 85 | 1017.6 |
| 20260508130703 | 10 | 199 | 4.8 | 8.0 | 0.00 | 0.00 | 0.00 | 85 | 1017.5 |
| 20260508130200 | 10 | 212 | 9.7 | 12.9 | 0.00 | 0.00 | 0.00 | 86 | 1017.5 |
| 20260508125655 | 10 | 156 | 1.6 | 1.6 | 0.00 | 0.00 | 0.00 | 86 | 1017.4 |
| 20260508125152 | 10 | 196 | 1.6 | 1.6 | 0.00 | 0.00 | 0.00 | 86 | 1017.3 |
| 20260508124650 | 10 | 220 | 3.2 | 3.2 | 0.00 | 0.00 | 0.00 | 87 | 1017.1 |
| 20260508124147 | 10 | 217 | 4.8 | 8.0 | 0.00 | 0.00 | 0.00 | 87 | 1017.2 |
| 20260508123646 | 10 | 206 | 6.4 | 9.7 | 0.00 | 0.00 | 0.00 | 87 | 1017.1 |
| 20260508123143 | 10 | 212 | 1.6 | 3.2 | 0.00 | 0.00 | 0.00 | 88 | 1017.1 |
| 20260508122639 | 10 | 196 | 9.7 | 11.3 | 0.00 | 0.00 | 0.00 | 88 | 1017.3 |
| 20260508122136 | 10 | 221 | 4.8 | 8.0 | 0.00 | 0.00 | 0.00 | 89 | 1017.1 |
| 20260508121634 | 10 | 234 | 4.8 | 4.8 | 0.00 | 0.00 | 0.00 | 89 | 1017.0 |
| 20260508121132 | 10 | 157 | 1.6 | 1.6 | 0.00 | 0.00 | 0.00 | 89 | 1017.0 |
| 20260508120629 | 10 | 155 | 3.2 | 3.2 | 0.00 | 0.00 | 0.00 | 89 | 1017.0 |
| 20260508120127 | 10 | 189 | 3.2 | 3.2 | 0.00 | 0.00 | 0.00 | 89 | 1017.1 |
| 20260508115625 | 10 | 180 | 3.2 | 4.8 | 0.00 | 0.00 | 0.00 | 89 | 1017.2 |
| 20260508115121 | 10 | 192 | 8.0 | 11.3 | 0.00 | 0.00 | 0.00 | 90 | 1017.0 |
| 20260508114618 | 10 | 188 | 8.0 | 9.7 | 0.00 | 0.00 | 0.00 | 90 | 1017.0 |
| 20260508114114 | 11 | 227 | 0.0 | 0.0 | 0.00 | 0.00 | 0.00 | 90 | 1017.2 |
| 20260508113612 | 11 | 194 | 8.0 | 11.3 | 0.00 | 0.00 | 0.00 | 90 | 1016.9 |
| 20260508113110 | 11 | 220 | 6.4 | 8.0 | 0.00 | 0.00 | 0.00 | 91 | 1017.0 |
| 20260508112605 | 10 | 197 | 6.4 | 9.7 | 0.00 | 0.00 | 0.00 | 91 | 1016.8 |
| 20260508112103 | 11 | 232 | 0.0 | 0.0 | 0.00 | 0.00 | 0.00 | 91 | 1016.7 |
| 20260508111559 | 11 | 222 | 1.6 | 3.2 | 0.00 | 0.00 | 0.00 | 91 | 1016.6 |
| 20260508111057 | 10 | 178 | 3.2 | 3.2 | 0.00 | 0.00 | 0.00 | 91 | 1016.7 |
| 20260508110555 | 10 | 214 | 3.2 | 3.2 | 0.00 | 0.00 | 0.00 | 92 | 1016.6 |
| 20260508110050 | 10 | 252 | 0.0 | 1.6 | 0.00 | 0.00 | 0.00 | 92 | 1016.4 |
| 20260508105545 | 10 | 262 | 0.0 | 0.0 | 0.00 | 0.00 | 0.00 | 92 | 1016.6 |
| 20260508105043 | 10 | 256 | 0.0 | 0.0 | 0.00 | 0.00 | 0.00 | 92 | 1016.7 |
| 20260508104541 | 10 | 252 | 1.6 | 1.6 | 0.00 | 0.00 | 0.00 | 93 | 1016.5 |
| 20260508104037 | 10 | 265 | 1.6 | 1.6 | 0.00 | 0.00 | 0.00 | 93 | 1016.4 |
| 20260508103534 | 10 | 274 | 1.6 | 1.6 | 0.00 | 0.00 | 0.00 | 93 | 1016.2 |
| 20260508103031 | 10 | 273 | 0.0 | 0.0 | 0.00 | 0.00 | 0.00 | 94 | 1016.5 |
| 20260508102529 | 10 | 272 | 1.6 | 1.6 | 0.00 | 0.00 | 0.00 | 94 | 1016.4 |
| 20260508102026 | 10 | 273 | 0.0 | 0.0 | 0.00 | 0.00 | 0.00 | 94 | 1016.6 |
| 20260508101524 | 10 | 260 | 3.2 | 4.8 | 0.00 | 0.00 | 0.00 | 94 | 1016.5 |
| 20260508101020 | 10 | 282 | 0.0 | 0.0 | 0.00 | 0.00 | 0.00 | 94 | 1016.1 |
| 20260508100519 | 10 | 277 | 0.0 | 0.0 | 0.00 | 0.00 | 0.00 | 94 | 1016.0 |
| 20260508100015 | 10 | 290 | 0.0 | 0.0 | 0.00 | 0.00 | 0.00 | 94 | 1016.1 |
| 20260508095513 | 10 | 293 | 0.0 | 1.6 | 0.00 | 0.00 | 0.00 | 94 | 1016.4 |
| 20260508095009 | 10 | 285 | 0.0 | 0.0 | 0.00 | 0.00 | 0.00 | 94 | 1016.2 |
| 20260508094506 | 10 | 287 | 1.6 | 1.6 | 0.00 | 0.00 | 0.00 | 94 | 1016.2 |
| 20260508094003 | 10 | 288 | 0.0 | 1.6 | 0.00 | 0.00 | 0.00 | 93 | 1016.4 |
| 20260508093500 | 10 | 281 | 1.6 | 1.6 | 0.00 | 0.00 | 0.00 | 93 | 1016.3 |
| 20260508092958 | 10 | 295 | 0.0 | 0.0 | 0.00 | 0.00 | 0.00 | 93 | 1015.8 |
| 20260508092455 | 10 | 300 | 0.0 | 0.0 | 0.00 | 0.00 | 0.00 | 93 | 1016.1 |
| 20260508091954 | 10 | 292 | 1.6 | 1.6 | 0.00 | 0.00 | 0.00 | 93 | 1016.1 |
| 20260508091450 | 10 | 299 | 1.6 | 3.2 | 0.00 | 0.00 | 0.00 | 93 | 1016.4 |
| 20260508090947 | 10 | 274 | 1.6 | 3.2 | 0.00 | 0.00 | 0.00 | 93 | 1016.0 |
| 20260508090446 | 10 | 280 | 1.6 | 4.8 | 0.00 | 0.00 | 0.00 | 93 | 1016.1 |
| 20260508085941 | 10 | 279 | 0.0 | 0.0 | 0.00 | 0.00 | 0.00 | 93 | 1016.2 |
| 20260508085438 | 10 | 283 | 0.0 | 0.0 | 0.00 | 0.00 | 0.00 | 93 | 1016.1 |
| 20260508084935 | 10 | 292 | 0.0 | 0.0 | 0.00 | 0.00 | 0.00 | 92 | 1016.2 |
| 20260508084432 | 11 | 293 | 0.0 | 0.0 | 0.00 | 0.00 | 0.00 | 92 | 1016.3 |
| 20260508083930 | 11 | 285 | 0.0 | 0.0 | 0.00 | 0.00 | 0.00 | 92 | 1016.3 |
| 20260508083427 | 11 | 292 | 0.0 | 0.0 | 0.00 | 0.00 | 0.00 | 92 | 1016.3 |
| 20260508082926 | 11 | 289 | 0.0 | 0.0 | 0.00 | 0.00 | 0.00 | 92 | 1016.1 |
| 20260508082424 | 11 | 286 | 0.0 | 0.0 | 0.00 | 0.00 | 0.00 | 92 | 1016.3 |
| 20260508081922 | 11 | 290 | 0.0 | 0.0 | 0.00 | 0.00 | 0.00 | 92 | 1016.3 |
| 20260508081418 | 11 | 285 | 0.0 | 0.0 | 0.00 | 0.00 | 0.00 | 92 | 1016.4 |
| 20260508080915 | 11 | 291 | 0.0 | 0.0 | 0.00 | 0.00 | 0.00 | 91 | 1016.3 |
| 20260508080413 | 11 | 275 | 0.0 | 0.0 | 0.00 | 0.00 | 0.00 | 91 | 1016.3 |
| 20260508075909 | 11 | 279 | 0.0 | 0.0 | 0.00 | 0.00 | 0.00 | 91 | 1016.3 |
| 20260508075407 | 11 | 281 | 0.0 | 0.0 | 0.00 | 0.00 | 0.00 | 91 | 1016.2 |
| 20260508074904 | 11 | 290 | 0.0 | 0.0 | 0.00 | 0.00 | 0.00 | 90 | 1016.2 |
| 20260508074401 | 11 | 280 | 0.0 | 0.0 | 0.00 | 0.00 | 0.00 | 90 | 1016.4 |
| 20260508073858 | 11 | 281 | 0.0 | 0.0 | 0.00 | 0.00 | 0.00 | 90 | 1016.3 |
| 20260508073356 | 11 | 279 | 0.0 | 0.0 | 0.00 | 0.00 | 0.00 | 90 | 1016.4 |
| 20260508072852 | 11 | 279 | 0.0 | 0.0 | 0.00 | 0.00 | 0.00 | 90 | 1016.1 |
| 20260508072349 | 11 | 281 | 0.0 | 0.0 | 0.00 | 0.00 | 0.00 | 90 | 1016.5 |
| 20260508071846 | 11 | 281 | 0.0 | 0.0 | 0.00 | 0.00 | 0.00 | 90 | 1016.1 |
| 20260508071345 | 11 | 290 | 0.0 | 0.0 | 0.00 | 0.00 | 0.00 | 89 | 1016.3 |
| 20260508070842 | 11 | 290 | 0.0 | 0.0 | 0.00 | 0.00 | 0.00 | 89 | 1016.2 |
| 20260508070340 | 12 | 286 | 0.0 | 0.0 | 0.00 | 0.00 | 0.00 | 89 | 1016.3 |
| 20260508065837 | 11 | 273 | 0.0 | 0.0 | 0.00 | 0.00 | 0.00 | 89 | 1016.4 |
| 20260508065335 | 11 | 288 | 0.0 | 0.0 | 0.00 | 0.00 | 0.00 | 88 | 1016.5 |
| 20260508064833 | 11 | 287 | 0.0 | 0.0 | 0.00 | 0.00 | 0.00 | 88 | 1016.5 |
| 20260508064330 | 12 | 286 | 0.0 | 0.0 | 0.00 | 0.00 | 0.00 | 88 | 1016.5 |
| 20260508063828 | 12 | 286 | 0.0 | 0.0 | 0.00 | 0.00 | 0.00 | 87 | 1016.2 |
| 20260508063326 | 12 | 282 | 0.0 | 0.0 | 0.00 | 0.00 | 0.00 | 85 | 1016.4 |
| 20260508062822 | 11 | 290 | 0.0 | 0.0 | 0.00 | 0.00 | 0.00 | 83 | 1016.3 |
| 20260508062320 | 12 | 287 | 0.0 | 0.0 | 0.00 | 0.00 | 0.00 | 83 | 1016.5 |
| 20260508061816 | 12 | 288 | 0.0 | 0.0 | 0.00 | 0.00 | 0.00 | 82 | 1016.3 |
| 20260508061314 | 12 | 290 | 0.0 | 0.0 | 0.00 | 0.00 | 0.00 | 82 | 1016.4 |
| 20260508060810 | 12 | 289 | 0.0 | 0.0 | 0.00 | 0.00 | 0.00 | 81 | 1016.5 |
| 20260508060308 | 12 | 287 | 0.0 | 0.0 | 0.00 | 0.00 | 0.00 | 80 | 1016.3 |
| 20260508055803 | 13 | 300 | 0.0 | 0.0 | 0.00 | 0.00 | 0.00 | 79 | 1016.6 |
| 20260508055301 | 13 | 296 | 0.0 | 0.0 | 0.00 | 0.00 | 0.00 | 78 | 1016.7 |
| 20260508054756 | 13 | 286 | 0.0 | 0.0 | 0.00 | 0.00 | 0.00 | 77 | 1016.6 |
| 20260508054255 | 13 | 288 | 0.0 | 0.0 | 0.00 | 0.00 | 0.00 | 76 | 1016.5 |
| 20260508053751 | 13 | 287 | 0.0 | 0.0 | 0.00 | 0.00 | 0.00 | 75 | 1016.6 |
| 20260508053249 | 13 | 286 | 0.0 | 0.0 | 0.00 | 0.00 | 0.00 | 74 | 1016.4 |
| 20260508052746 | 13 | 287 | 0.0 | 0.0 | 0.00 | 0.00 | 0.00 | 75 | 1016.6 |
| 20260508052243 | 13 | 314 | 0.0 | 0.0 | 0.00 | 0.00 | 0.00 | 74 | 1016.5 |
| 20260508051739 | 13 | 339 | 0.0 | 0.0 | 0.00 | 0.00 | 0.00 | 73 | 1016.5 |
| 20260508051235 | 14 | 348 | 0.0 | 0.0 | 0.00 | 0.00 | 0.00 | 73 | 1016.3 |
| 20260508050731 | 14 | 28 | 0.0 | 0.0 | 0.00 | 0.00 | 0.00 | 72 | 1016.4 |
| 20260508050230 | 14 | 26 | 0.0 | 0.0 | 0.00 | 0.00 | 0.00 | 72 | 1016.5 |
| 20260508045724 | 14 | 359 | 0.0 | 0.0 | 0.00 | 0.00 | 0.00 | 72 | 1016.5 |
| 20260508045222 | 14 | 359 | 0.0 | 0.0 | 0.00 | 0.00 | 0.00 | 72 | 1016.6 |
| 20260508044720 | 15 | 340 | 0.0 | 0.0 | 0.00 | 0.00 | 0.00 | 71 | 1016.5 |
| 20260508044216 | 15 | 14 | 0.0 | 0.0 | 0.00 | 0.00 | 0.00 | 71 | 1016.6 |
| 20260508043712 | 15 | 357 | 0.0 | 0.0 | 0.00 | 0.00 | 0.00 | 71 | 1016.6 |
| 20260508043210 | 15 | 34 | 0.0 | 0.0 | 0.00 | 0.00 | 0.00 | 70 | 1016.6 |
| 20260508042706 | 15 | 15 | 0.0 | 0.0 | 0.00 | 0.00 | 0.00 | 70 | 1016.6 |
| 20260508042204 | 15 | 350 | 0.0 | 0.0 | 0.00 | 0.00 | 0.00 | 70 | 1016.7 |
| 20260508041700 | 15 | 17 | 0.0 | 0.0 | 0.00 | 0.00 | 0.00 | 69 | 1016.9 |
| 20260508041157 | 15 | 344 | 0.0 | 0.0 | 0.00 | 0.00 | 0.00 | 69 | 1016.6 |
| 20260508040653 | 15 | 334 | 0.0 | 0.0 | 0.00 | 0.00 | 0.00 | 69 | 1016.7 |
| 20260508040151 | 15 | 343 | 0.0 | 0.0 | 0.00 | 0.00 | 0.00 | 68 | 1016.7 |
| 20260508035648 | 15 | 346 | 1.6 | 1.6 | 0.00 | 0.00 | 0.00 | 68 | 1016.7 |
| 20260508035145 | 15 | 3 | 1.6 | 1.6 | 0.00 | 0.00 | 0.00 | 68 | 1016.5 |